Weather History for Buffalo, WY

Change the Weather History Date:

Friday, January 31, 2014

  Actual Average Record
Temperature  
Mean Temperature 18 °F 27 °F  
Max Temperature 34 °F 37 °F 59 °F (2009)
Min Temperature 1 °F 17 °F -15 °F (2011)
Degree Days  
Heating Degree Days 47 38  
Month to date heating degree days 1149 1158  
Since 1 July heating degree days 3947 4207  
Cooling Degree Days 0 0  
Month to date cooling degree days 0 0  
Year to date cooling degree days 0 0  
Moisture  
Dew Point 10 °F    
Average Humidity 66    
Maximum Humidity 91    
Minimum Humidity 41    
Precipitation  
Precipitation T in 0.02 in 0.12 in (2013)
Month to date precipitation 0.21 0.42  
Year to date precipitation 0.21 0.42  
Sea Level Pressure  
Sea Level Pressure 29.86 in    
Wind  
Wind Speed 8 mph (North)    
Max Wind Speed 25 mph    
Max Gust Speed 37 mph    
Visibility 9 miles    
Events Snow    
T = Trace of Precipitation, MM = Missing Value Source: NWS Daily Summary

Daily Weather History Graph

Daily Weather History Graph

Search for Another Location

Airport:

Trip Planner

Search our weather history database for the weather conditions in past years. The results will help you decide how hot, cold, wet, or windy it might be!

Date:

Astronomy

Jan. 31, 2014 Rise Set
Actual Time 7:26 AM MST 5:15 PM MST
Civil Twilight 6:55 AM MST 5:46 PM MST
Nautical Twilight 6:20 AM MST 6:20 PM MST
Astronomical Twilight 5:46 AM MST 6:55 PM MST
Moon 7:33 AM MST (1/31) 6:47 PM MST (1/31)
Length of Visible Light 10h 50m
Length of Day
9h 48m
New Moon, 1% of the Moon is Illuminated
Jan 31
New Moon
Feb 6
First Quarter
Feb 14
Full
Feb 22
Last Quarter
Mar 1
New

Hourly Weather History & Observations

Time (MST) Temp. Windchill Dew Point Humidity Pressure Visibility Wind Dir Wind Speed Gust Speed Precip Events Conditions
12:16 AM 9.0 °F -6.6 °F 3.9 °F 80% 29.76 in 9.0 mi South 12.7 mph - N/A   Mostly Cloudy
12:44 AM 8.1 °F -5.3 °F 3.9 °F 83% 29.75 in 10.0 mi South 9.2 mph - 0.00 in   Scattered Clouds
12:53 AM 7.0 °F -6.6 °F 3.0 °F 84% 29.95 in 10.0 mi SSE 9.2 mph - 0.00 in   Partly Cloudy
1:53 AM 7.0 °F -6.6 °F 3.9 °F 87% 29.93 in 9.0 mi SSE 9.2 mph - N/A   Partly Cloudy
2:53 AM 3.9 °F -3.4 °F 1.0 °F 88% 29.92 in 10.0 mi ENE 3.5 mph - N/A   Clear
3:53 AM 5.0 °F - 1.0 °F 84% 29.91 in 10.0 mi Calm Calm - N/A   Clear
4:53 AM 3.0 °F - -0.9 °F 84% 29.92 in 10.0 mi Calm Calm - N/A   Partly Cloudy
5:53 AM 8.1 °F - 3.0 °F 80% 29.90 in 10.0 mi Calm Calm - N/A   Clear
6:53 AM 6.1 °F -2.8 °F -0.0 °F 76% 29.91 in 10.0 mi SSW 4.6 mph - N/A   Clear
7:53 AM 14.0 °F 6.5 °F 6.1 °F 71% 29.89 in 10.0 mi WSW 4.6 mph - N/A   Clear
8:53 AM 19.9 °F 14.9 °F 10.9 °F 68% 29.86 in 10.0 mi West 3.5 mph - N/A   Clear
9:53 AM 24.1 °F 18.2 °F 12.9 °F 62% 29.84 in 10.0 mi WSW 4.6 mph - N/A   Clear
10:53 AM 25.0 °F 20.7 °F 15.1 °F 66% 29.83 in 10.0 mi SSE 3.5 mph - N/A   Partly Cloudy
11:53 AM 28.0 °F 24.2 °F 16.0 °F 61% 29.80 in 10.0 mi SSE 3.5 mph - N/A   Mostly Cloudy
12:53 PM 30.9 °F 27.5 °F 18.0 °F 59% 29.80 in 10.0 mi ESE 3.5 mph - N/A   Mostly Cloudy
1:53 PM 33.1 °F 30.0 °F 12.9 °F 43% 29.78 in 10.0 mi ENE 3.5 mph - N/A   Overcast
2:53 PM 32.0 °F 22.1 °F 17.1 °F 54% 29.81 in 10.0 mi NNE 13.8 mph - N/A   Mostly Cloudy
3:53 PM 28.9 °F 19.8 °F 15.1 °F 56% 29.83 in 10.0 mi North 10.4 mph 24.2 mph N/A   Overcast
4:53 PM 24.1 °F 9.4 °F 16.0 °F 71% 29.88 in 10.0 mi NNW 20.7 mph 36.8 mph N/A   Mostly Cloudy
5:53 PM 19.9 °F 3.9 °F 16.0 °F 85% 29.91 in 9.0 mi NNW 20.7 mph 29.9 mph N/A   Scattered Clouds
6:41 PM 19.9 °F 6.7 °F 17.1 °F 89% 29.76 in 3.0 mi North 13.8 mph - 0.00 in Snow Light Snow
6:44 PM 19.9 °F 6.7 °F 17.1 °F 89% 29.76 in 3.0 mi North 13.8 mph - 0.00 in Snow Light Snow
6:53 PM 19.9 °F 6.7 °F 17.1 °F 89% 29.95 in 6.0 mi North 13.8 mph - 0.00 in   Overcast
7:22 PM 19.0 °F 7.5 °F 15.1 °F 85% 29.77 in 10.0 mi NNW 10.4 mph 21.9 mph N/A   Overcast
7:46 PM 18.0 °F 3.6 °F 14.0 °F 84% 29.77 in 10.0 mi NNW 15.0 mph - N/A   Overcast
7:53 PM 18.0 °F 4.8 °F 12.9 °F 81% 29.94 in 10.0 mi NNW 12.7 mph - N/A   Overcast
8:25 PM 16.0 °F 4.4 °F 9.0 °F 74% 29.77 in 10.0 mi NNW 9.2 mph - N/A   Mostly Cloudy
8:53 PM 17.1 °F 7.6 °F 9.0 °F 71% 29.93 in 10.0 mi NNW 6.9 mph - N/A   Overcast
9:53 PM 16.0 °F 1.7 °F 8.1 °F 71% 29.94 in 10.0 mi North 13.8 mph - N/A   Overcast
10:53 PM 15.1 °F 4.2 °F 7.0 °F 70% 29.95 in 10.0 mi North 8.1 mph - N/A   Overcast
11:53 PM 15.1 °F 1.8 °F 8.1 °F 74% 29.94 in 10.0 mi North 11.5 mph - N/A   Overcast